Flag for India Weather past 2 weeks in Chandigarh, Chandigarh, India

75 °F


Feels Like: 73 °F
Forecast: 70 / 87 °F
Wind: No wind

Location: Amritsar Airport

Current Time: Oct 14, 2015 at 4:50:47 AM

Latest Report: Oct 14, 2015 at 3:00 AM

Visibility: 1 mi

Pressure: 29.92 "Hg

Humidity: 100%

Dew point: 75 °F

Location of ChandigarhLocation

Historic Weather in Chandigarh — Graph


Chandigarh temperature yesterday

Maximum temperature yesterday: 91 °F (at 2:00 PM)
Minimum temperature yesterday: 73 °F (at 4:00 AM)
Average temperature yesterday: 80 °F

Past Weeks' High & Low Weather Summary

High93 °F (Oct 3, 3:30 PM)100% (Sep 29, 3:00 AM)29.98 "Hg (Sep 29, 3:00 AM)
Low64 °F (Sep 30, 6:30 AM)38% (Oct 8, 3:30 PM)29.62 "Hg (Oct 9, 4:00 PM)
Average80 °F74%29.84 "Hg
* Reported Sep 29 2:30 AM — Oct 14 3:00 AM, Chandigarh, Weather by CustomWeather, © 2015

Note: Actual official high and low records may vary slightly from our data, if they occured in-between our weather recording intervals... More about our weather records


Chandigarh weather history for previous 24 hours

Time TempWeatherWind HumidityBarometerVisibility
3:00 AM
Wed, Oct 14
75 °FFog.No wind100%29.92 "Hg1 mi
2:00 AM77 °FFog.No wind94%29.92 "Hg1 mi
1:30 AM77 °FFog.No wind94%29.92 "Hg1 mi
1:00 AM77 °FFog.No wind94%29.92 "Hg1 mi
12:00 AM77 °FFog.No wind94%29.92 "Hg1 mi
11:30 PM
Tue, Oct 13
77 °FFog.No wind94%29.92 "Hg1 mi
11:00 PM79 °FFog.No wind89%29.92 "Hg1 mi
10:30 PM79 °FFog.No wind89%29.92 "Hg1 mi
10:00 PM79 °FFog.No wind89%29.92 "Hg1 mi
9:30 PM79 °FFog.No wind94%29.92 "Hg1 mi
9:00 PM79 °FFog.No wind94%29.92 "Hg1 mi
8:30 PM81 °FFog.No wind89%29.89 "Hg1 mi
8:00 PM81 °FFog.No wind84%29.89 "Hg1 mi
7:30 PM82 °FFog.No wind79%29.89 "Hg1 mi
7:00 PM82 °FFog.No wind79%29.89 "Hg1 mi
6:30 PM82 °FFog.No wind79%29.86 "Hg2 mi
6:00 PM86 °FHaze.No wind66%29.86 "Hg2 mi
5:30 PM88 °FHaze.No wind62%29.86 "Hg2 mi
5:00 PM90 °FHaze.No wind59%29.86 "Hg2 mi
4:30 PM90 °FHaze.No wind55%29.86 "Hg2 mi
3:00 PM90 °FScattered clouds.No wind55%29.89 "Hg2 mi
2:30 PM90 °FScattered clouds.2 mph55%29.89 "Hg2 mi
2:00 PM91 °FScattered clouds.5 mph56%29.89 "Hg2 mi
1:30 PM90 °FScattered clouds.2 mph59%29.89 "Hg2 mi
1:00 PM90 °FHaze.2 mph63%29.92 "Hg2 mi
12:30 PM90 °FHaze.6 mph59%29.92 "Hg2 mi
12:00 PM88 °FHaze.3 mph66%29.92 "Hg2 mi
11:30 AM86 °FHaze.6 mph70%29.92 "Hg2 mi
10:30 AM86 °FHaze.5 mph70%29.95 "Hg1 mi
10:00 AM82 °FFog.5 mph79%29.95 "Hg1 mi
9:00 AM79 °FFog.1 mph94%29.92 "Hg1 mi
8:30 AM77 °FFog.No wind94%29.92 "Hg1 mi
8:00 AM75 °FFog.No wind100%29.92 "Hg1 mi
7:30 AM73 °FFog.No wind100%29.89 "Hg1 mi
7:00 AM73 °FFog.No wind100%29.89 "Hg1 mi
6:30 AM73 °FFog.No wind100%29.89 "Hg1 mi
6:00 AM73 °FFog.No wind100%29.86 "Hg1 mi
5:30 AM73 °FFog.No wind100%29.86 "Hg1 mi
5:00 AM73 °FFog.No wind100%29.86 "Hg1 mi
4:30 AM73 °FFog.No wind100%29.86 "Hg1 mi
4:00 AM73 °FFog.No wind100%29.86 "Hg1 mi
Weather by CustomWeather, © 2015

See weather overviewHow to use our weather pages